Location: Dal�� Lhota
(48.7500°N, 14.0167°E)
Time: 07:51:38
(UTC+00:00)

Explorer 7 - Pass Details

Date: 03 August 2021
Orbit: 484 x 676 km, 50.3° (Epoch: 21 September)

Event Time Altitude Azimuth Distance (km) Brightness Sun altitude
Rises 03:44:08 0° 231° (SW) 2,543 - -0.3°
Exits shadow 03:44:08 - 231° (SW) 2,537 9.5 -0.3°
Reaches altitude 10° 03:46:19 10° 225° (SW) 1,675 8.7 0.0°
Maximum altitude 03:49:56 46° 152° (SSE) 681 7.4 0.6°
Drops below altitude 10° 03:53:42 10° 78° (ENE) 1,746 11.3 1.1°
Sets 03:56:01 0° 72° (ENE) 2,666 13.0 1.5°
